Probability
0 0 0 0 0 0 0 0 0 0 0 0 0 0 0 0 0 0 0 0 0 0 0 0 0 1 2 2 1 0 0 1 2 3 3 3 2 1 0 0 0 0 0 0 0 0 1 2 3
0 0 0 0 0 0 0 0 0 0 0 0 0 0 0 0 0 0 0 0 0 0 0 0 0 1 2 3 2 1 0 1 2 3 3 3 2 1 0 0 0 0 0 0 0 0 1 2 3
0 0 0 0 0 0 0 0 0 0 0 0 0 0 0 0 0 0 0 0 0 0 0 0 0 2 3 3 3 2 1 1 1 2 3 2 1 0 0 0 0 0 0 0 0 0 1 2 2
0 0 0 0 0 0 0 0 0 0 0 0 0 0 0 0 0 0 0 0 0 0 0 0 0 1 3 3 3 3 2 1 1 2 3 2 1 0 0 0 0 0 0 0 0 0 1 2 1
0 0 0 0 0 0 0 0 0 0 0 0 0 0 0 0 0 0 0 0 0 0 0 0 0 1 2 3 2 3 3 2 1 2 3 3 2 1 1 0 0 0 0 0 0 0 1 1 0
0 0 0 0 0 0 0 0 0 0 0 0 0 0 0 0 0 0 0 0 0 0 0 0 0 1 2 2 3 3 3 2 1 1 2 3 3 2 1 0 0 0 0 0 0 0 0 0 0
0 0 0 0 0 0 0 0 0 0 0 0 0 0 0 0 0 0 0 0 0 0 0 0 0 0 1 1 2 2 2 2 1 0 0 1 2 1 0 0 0 0 0 0 0 0 0 0 0
0 0 0 0 0 0 0 0 0 0 0 0 0 0 0 0 0 0 0 0 0 0 0 0 0 0 0 0 1 1 1 1 0 0 0 0 0 0 0 0 0 0 0 0 0 0 0 0 0
0 0 0 0 0 0 0 0 0 0 0 0 0 0 0 0 0 0 0 0 0 0 0 0 0 0 0 0 0 0 0 0 0 0 0 0 0 0 0 0 0 0 0 0 0 0 0 0 0
0 0 0 0 0 0 0 0 0 0 0 0 0 0 0 0 0 0 0 0 0 0 0 0 0 0 0 0 0 0 0 0 0 0 0 0 0 0 0 0 0 0 0 0 0 0 0 0 0
0 0 0 0 0 0 0 0 0 0 0 0 0 0 0 0 0 0 0 0 0 0 0 0 0 0 0 0 0 0 1 1 0 0 0 0 0 0 0 0 0 0 0 0 0 0 0 0 0
0 0 0 0 0 0 0 0 0 0 0 0 0 0 0 0 0 0 0 0 0 0 0 0 0 0 0 0 0 0 1 1 1 0 0 0 0 0 0 0 0 0 0 0 0 0 0 0 0
0 0 0 0 0 0 0 0 0 0 0 0 0 0 0 0 0 0 0 0 0 0 0 0 0 0 0 0 0 0 0 1 1 0 0 0 0 0 0 0 0 0 0 0 0 0 0 0 0
0 0 0 0 0 0 0 0 0 0 0 0 0 0 0 0 0 0 0 0 0 0 0 0 0 0 0 0 0 0 0 0 0 0 0 0 0 0 0 0 0 0 0 0 0 0 0 0 0
0 0 0 0 0 0 0 0 0 0 0 0 0 0 0 0 0 0 0 0 0 0 0 0 0 0 0 0 0 0 0 0 0 0 0 0 0 0 0 0 0 0 0 0 0 0 0 0 0
0 0 0 0 0 0 0 0 0 0 0 0 0 0 0 0 0 0 0 0 0 0 0 0 0 0 0 0 0 0 0 0 0 0 0 0 0 0 0 0 0 0 0 0 0 0 0 0 0
0 0 0 0 0 0 0 0 0 0 0 0 0 0 0 0 0 0 0 0 0 0 0 0 0 0 0 0 0 0 0 1 1 1 0 0 0 0 0 0 0 0 0 0 0 0 0 0 0
0 0 0 0 0 0 0 0 0 0 0 0 0 0 0 0 0 0 0 0 0 0 0 0 0 0 0 0 0 0 0 1 2 2 1 0 0 0 0 0 0 0 0 0 0 0 0 0 0
0 0 0 0 0 0 0 0 0 0 0 0 0 0 0 0 0 0 0 0 0 0 0 0 0 0 0 0 0 0 0 0 1 1 1 0 0 0 0 0 0 0 0 0 0 0 0 0 0
0 0 0 0 0 0 0 0 0 0 0 0 0 0 0 0 0 0 0 0 0 0 0 0 0 0 0 0 0 0 0 0 0 0 0 0 0 0 0 0 0 0 0 0 0 0 0 0 0
0 0 0 0 0 0 0 0 0 0 0 0 0 0 0 0 0 0 0 0 0 0 0 0 0 0 0 0 0 0 0 0 0 0 0 0 0 0 0 0 0 0 0 0 0 0 0 0 0
0 0 0 0 0 0 0 0 0 0 0 0 0 0 0 0 0 0 0 0 0 0 0 0 0 0 0 0 0 0 0 0 0 0 0 0 0 0 0 0 0 0 0 0 0 0 0 0 0
0 0 0 0 0 0 0 0 0 0 0 0 0 0 0 0 0 0 0 0 0 0 0 0 0 0 0 0 0 0 0 0 0 0 0 0 0 0 0 0 0 0 0 0 0 0 0 0 0
0 0 0 0 0 0 0 0 0 0 0 0 0 0 0 0 0 0 0 0 0 0 0 0 0 0 0 0 0 0 0 0 0 0 0 0 0 0 0 0 0 0 0 0 0 0 0 0 0
0 0 0 0 0 0 0 0 0 0 0 0 0 0 0 0 0 0 0 0 0 0 0 0 0 0 0 0 0 0 0 0 0 0 0 0 0 0 0 0 0 0 0 0 0 0 0 0 0
0 0 0 0 0 0 0 0 0 0 0 0 0 0 0 0 0 0 0 0 0 0 0 0 0 0 0 0 0 0 0 0 0 0 0 0 0 0 0 0 0 0 0 0 0 0 0 0 0
0 0 0 0 0 0 0 0 0 0 0 0 0 0 0 0 0 0 0 0 0 0 0 0 0 0 0 0 0 0 0 0 0 0 0 0 0 0 0 0 0 0 0 0 0 0 0 0 0
0 0 0 0 0 0 0 0 0 0 0 0 0 0 0 0 0 0 0 0 0 0 0 0 0 0 0 0 0 0 0 0 0 0 0 0 0 0 0 0 0 0 0 0 0 0 0 0 0
0 0 0 0 0 0 0 0 0 0 0 0 0 0 0 0 0 0 0 0 0 0 0 0 0 0 0 0 0 0 0 0 0 0 0 0 0 0 0 0 0 0 0 0 0 0 0 0 0
0 0 0 0 0 0 0 0 0 0 0 0 0 0 0 0 0 0 0 0 0 0 0 0 0 0 0 0 0 0 0 0 0 0 0 0 0 0 0 0 0 0 0 0 0 0 0 0 0
Wind_Speed
5 2 2 4 5 3 3 4 2 1 1 1 0 2 3 3 3 2 1 2 2 3 3 3 5 7 7 7 7 7 7 7 7 7 8 7 7 7 7 7 7 7 7 8 9 10 10 10 10
1 2 4 5 4 1 5 4 4 4 2 1 1 1 2 1 1 1 1 0 2 3 3 3 5 7 7 7 7 7 7 7 7 7 7 7 7 7 7 7 6 6 6 8 9 9 9 9 10
1 3 4 4 3 5 5 3 4 2 1 0 1 1 1 1 0 1 1 2 3 2 2 3 5 6 6 6 7 7 7 6 6 6 7 7 6 6 7 6 6 6 6 7 8 9 9 9 9
3 4 4 2 5 5 4 3 1 1 2 1 1 1 1 1 1 1 1 3 4 3 2 3 5 6 6 6 6 7 6 6 6 6 5 6 6 6 6 6 6 6 6 7 8 8 8 8 8
4 4 2 2 5 3 3 3 2 1 1 1 0 1 2 1 1 2 3 3 4 2 2 2 4 5 5 5 6 6 6 6 5 5 5 5 5 6 6 6 6 6 6 6 7 7 7 8 8
4 4 3 5 6 3 3 2 1 2 2 1 1 1 2 1 2 1 2 3 3 3 2 2 3 3 3 4 5 6 6 5 5 5 5 4 5 6 6 6 6 6 6 6 6 6 7 7 7
4 3 4 4 4 4 3 2 2 3 2 3 2 2 3 1 0 1 2 2 2 3 3 2 1 2 2 2 4 5 5 5 5 4 4 4 4 5 6 5 5 5 5 5 5 6 6 6 6
4 4 2 3 4 5 2 1 2 3 4 1 3 4 4 2 1 2 2 2 2 2 2 2 1 1 1 2 3 4 4 4 4 4 5 5 4 4 5 5 5 5 5 5 5 5 5 6 6
3 3 5 5 5 4 1 1 1 0 1 1 1 2 2 2 4 3 2 1 1 1 1 2 1 1 1 1 2 3 4 4 4 4 5 5 3 3 3 4 5 5 5 5 5 4 5 5 5
3 4 7 4 4 3 2 2 2 0 1 2 3 3 0 3 4 4 3 4 4 3 2 2 1 1 1 1 1 1 2 2 2 2 3 2 2 2 3 4 5 5 5 4 4 5 4 3 2
3 5 3 3 3 2 2 2 1 3 5 6 6 4 2 3 4 5 5 5 5 4 3 2 2 1 1 1 1 1 1 1 2 2 3 2 2 2 2 2 2 3 4 3 3 3 2 2 1
2 2 3 3 1 1 2 2 2 5 8 5 5 3 4 5 6 6 6 5 3 3 4 3 3 2 2 2 1 1 1 1 1 2 3 2 2 2 2 1 1 1 1 1 1 1 2 2 1
3 2 2 2 2 2 2 4 4 7 8 3 2 3 5 6 6 5 5 4 4 4 4 4 4 3 2 2 2 1 2 2 2 2 2 3 3 2 2 1 1 1 1 1 1 1 1 1 1
2 2 3 3 3 2 3 5 4 10 3 2 2 5 5 6 6 4 4 5 5 5 5 4 4 4 3 2 2 2 2 2 2 2 2 3 3 3 2 1 1 1 1 1 1 1 1 1 1
0 2 4 3 3 2 1 7 7 8 2 3 4 5 5 6 5 6 6 6 6 5 4 4 4 4 4 3 2 2 2 2 2 2 2 3 3 3 3 2 2 1 1 1 1 1 1 1 0
1 1 4 3 2 1 2 11 6 2 3 5 5 5 5 6 6 6 5 5 4 4 4 4 4 4 3 3 2 2 2 2 1 1 2 2 2 3 2 2 2 2 2 2 1 1 1 0 0
1 2 4 4 2 1 3 9 7 1 2 6 6 5 5 5 5 5 5 5 4 5 4 4 4 4 4 3 2 2 2 2 2 2 1 1 2 2 2 2 2 2 2 2 1 1 1 1 0
4 4 4 4 2 1 4 11 10 5 4 7 7 6 6 6 7 5 5 5 4 4 4 4 4 3 3 2 1 1 1 1 1 2 2 2 2 2 2 2 2 2 2 2 2 1 1 1 1
3 3 5 5 2 2 7 12 13 8 5 7 7 7 7 7 6 4 4 4 4 4 4 4 4 3 3 2 2 2 2 2 2 2 2 3 2 2 2 1 2 2 2 2 2 2 1 1 0
4 5 7 5 1 3 6 11 11 7 6 7 7 7 7 6 4 3 3 3 4 5 5 5 5 4 4 3 3 2 2 2 2 2 2 3 3 3 2 3 2 2 2 2 2 2 1 1 1
6 7 7 5 4 3 5 9 7 4 3 4 4 5 5 5 5 4 3 3 4 5 6 5 5 5 4 3 2 2 1 1 1 1 2 2 3 3 2 3 2 2 3 3 3 3 3 2 1
7 5 5 4 2 4 1 7 8 4 5 4 4 4 4 4 4 3 3 3 3 4 4 4 4 4 4 4 3 4 3 3 4 2 2 1 2 3 3 3 3 2 2 3 3 3 2 3 2
4 1 3 3 3 4 2 4 10 3 5 6 4 4 5 4 3 3 3 3 3 3 3 3 3 3 3 4 4 4 4 3 2 1 3 2 2 3 3 3 3 3 2 3 3 3 3 2 3
2 1 1 1 1 4 5 5 9 4 5 5 4 4 4 4 3 3 2 1 1 1 1 2 3 3 3 3 4 5 5 4 3 3 3 3 2 2 3 3 3 3 3 3 3 3 4 3 3
2 3 2 3 2 6 2 4 10 5 3 3 4 5 4 3 3 2 2 1 1 1 1 2 2 3 3 3 4 4 5 5 5 5 4 4 3 3 4 3 3 3 3 3 3 3 3 4 4
4 5 6 5 5 5 2 7 7 3 2 2 3 4 4 4 3 3 2 2 1 1 2 2 3 3 3 3 4 3 4 3 3 4 4 5 4 4 4 4 4 4 4 4 3 3 4 3 4
3 4 3 3 0 3 6 6 7 2 3 4 4 5 5 5 4 3 3 2 2 1 1 2 3 3 3 3 3 3 3 3 3 3 3 3 3 3 4 5 5 4 4 4 4 3 4 4 4
2 3 3 3 3 5 6 4 5 5 4 5 5 5 5 4 4 4 3 3 2 2 2 1 2 3 3 2 2 2 3 3 3 2 3 3 3 3 4 4 5 5 5 4 4 4 4 4 4
3 2 2 2 3 4 4 6 3 3 2 3 4 5 5 4 5 4 4 4 3 2 2 2 2 2 2 2 2 2 2 2 2 3 3 3 2 3 4 4 4 5 5 4 4 5 4 5 4
3 4 5 3 4 3 4 7 2 1 3 3 4 5 5 4 4 4 4 4 4 3 3 3 3 2 2 2 2 2 2 1 2 2 2 2 2 2 3 3 4 4 5 4 5 5 5 5 5
Wind_Direction
355 25 60 56 58 57 242 248 244 260 255 288 299 139 152 164 173 211 332 124 119 141 161 166 153 144 140 138 133 128 122 120 122 123 121 121 119 116 113 108 105 103 103 102 100 96 91 86 82
348 36 55 62 99 203 255 241 230 237 239 15 28 92 109 228 302 329 336 16 123 137 143 149 141 138 141 141 137 132 126 124 121 121 122 123 125 126 117 111 108 107 106 105 103 99 93 88 85
81 53 82 88 150 199 232 240 232 272 312 50 28 32 134 235 290 231 269 145 116 115 124 143 133 136 138 144 143 139 133 129 127 123 123 124 126 125 119 112 108 107 107 109 106 103 97 92 91
80 56 62 98 219 220 222 257 247 292 349 16 117 324 291 311 282 222 134 134 123 106 99 133 126 136 138 142 145 144 140 136 132 126 123 126 126 123 118 112 106 101 104 109 107 103 100 97 96
60 86 95 235 239 240 238 261 250 242 254 305 131 234 266 325 39 98 124 136 130 114 97 111 118 129 137 144 150 146 143 141 137 131 125 126 129 124 120 116 109 104 104 107 107 105 104 102 100
66 81 145 226 237 252 254 238 211 230 240 264 193 221 246 352 63 90 123 132 129 126 109 100 115 119 126 146 154 148 146 142 136 129 125 121 121 123 117 116 112 107 104 109 109 109 108 105 102
117 124 195 216 235 255 242 197 193 214 234 235 197 209 271 300 57 113 115 109 106 115 114 104 101 118 120 136 149 145 142 139 132 126 116 108 104 107 107 108 111 109 106 106 111 111 111 109 103
129 122 198 220 222 249 231 194 209 198 228 242 163 189 247 252 127 96 85 94 104 114 120 111 92 86 133 139 141 132 130 130 124 115 99 89 88 89 91 97 104 108 104 98 101 109 112 107 102
98 111 217 214 205 236 221 212 263 233 161 277 229 219 248 140 124 111 83 87 131 145 144 129 119 98 108 127 121 125 119 115 108 104 96 89 78 71 74 80 93 97 94 91 87 94 101 96 91
117 194 225 213 197 209 221 217 228 254 267 263 273 280 70 132 149 160 186 200 196 197 192 167 159 150 124 115 103 120 121 115 106 100 99 94 87 80 73 71 79 80 77 75 75 74 80 80 69
166 207 227 238 215 208 229 246 227 189 247 230 232 236 185 168 185 192 206 213 211 198 188 186 177 162 162 140 115 111 114 110 108 111 108 103 91 87 74 68 60 61 64 60 59 55 59 70 75
190 241 229 249 217 207 225 238 240 215 235 239 227 203 184 191 206 209 211 220 217 195 198 191 175 165 171 157 137 134 139 140 140 132 124 118 110 103 104 100 89 76 72 80 70 78 76 73 67
221 249 237 234 244 232 238 242 249 256 256 273 231 184 205 209 221 222 214 212 214 204 201 194 179 171 164 164 163 155 172 168 165 150 147 140 137 136 130 136 123 111 97 95 92 94 93 86 70
233 247 273 272 249 245 241 266 251 263 257 242 213 217 221 222 225 225 213 215 215 213 204 190 186 174 163 173 181 184 184 174 166 164 169 157 152 145 143 148 147 137 125 126 120 116 107 106 110
332 316 303 264 229 238 271 287 242 254 233 241 240 235 236 236 229 226 222 215 212 211 201 194 192 175 169 177 187 189 186 177 183 174 173 168 159 152 157 163 166 165 142 130 110 89 76 91 90
15 338 286 280 216 209 168 269 275 248 209 247 251 247 244 246 236 234 228 220 209 200 197 197 188 178 180 181 179 176 165 160 182 169 168 174 169 160 162 167 175 169 144 140 134 131 109 78 34
13 265 260 289 244 175 192 261 283 290 233 260 263 258 254 258 255 244 229 216 203 197 193 189 187 182 185 183 174 174 166 169 177 166 163 169 155 161 170 172 171 160 152 151 160 150 162 170 254
227 235 258 261 285 188 240 262 280 289 255 262 268 266 260 257 257 246 226 211 199 193 187 186 188 186 174 164 149 150 161 185 183 178 178 172 166 163 155 159 163 158 152 154 160 165 153 172 181
196 216 256 261 258 258 256 268 278 280 267 264 264 264 264 261 261 241 218 202 188 185 181 185 187 187 169 165 170 185 204 206 201 196 185 174 167 163 158 151 156 162 172 179 174 168 161 186 141
223 244 259 280 255 239 274 276 273 262 247 244 252 260 265 275 285 260 221 198 194 192 190 188 191 191 191 189 182 190 182 200 200 188 187 179 175 170 169 164 169 172 170 173 183 177 166 180 166
236 227 239 257 310 283 303 293 273 267 246 258 256 257 259 256 263 261 235 212 200 199 196 197 195 195 198 186 159 129 109 90 182 201 210 199 180 174 168 170 167 178 179 188 194 188 181 190 205
246 230 225 241 286 289 329 293 285 274 291 282 272 271 272 276 274 261 238 226 214 213 199 195 191 192 191 180 181 179 187 202 213 210 207 201 187 185 180 173 173 179 189 198 204 201 202 181 197
226 204 205 224 226 279 237 247 284 300 288 287 277 273 280 282 279 274 250 231 224 202 191 191 186 191 192 189 193 197 206 210 193 177 188 197 201 195 188 185 183 189 197 206 205 204 204 203 200
187 68 53 69 118 267 231 207 278 254 253 288 295 289 290 300 296 285 282 255 226 175 181 178 183 198 200 200 203 206 210 203 188 198 201 205 207 208 202 197 195 201 206 210 210 208 209 213 212
137 116 19 346 325 252 211 210 253 261 269 270 296 306 307 312 318 312 312 292 262 202 210 203 199 213 209 209 217 218 217 209 205 205 205 205 208 217 215 212 211 212 217 215 207 206 213 213 214
196 171 174 208 238 276 252 235 253 266 308 331 324 320 339 342 335 323 300 279 258 232 218 217 221 229 221 219 227 225 225 221 220 213 209 209 214 216 207 209 217 218 216 215 211 212 214 213 221
172 206 190 151 241 276 260 270 294 330 343 357 356 357 352 345 335 328 330 335 324 289 251 230 226 237 233 228 230 227 224 229 233 224 216 218 220 216 206 207 211 217 216 214 210 217 215 212 219
173 159 132 163 196 254 271 257 264 305 318 342 352 343 333 344 339 336 333 333 338 333 317 280 248 249 250 239 234 244 238 238 236 225 221 224 226 219 208 210 212 214 216 212 212 219 217 215 220
168 173 170 180 200 203 262 266 239 247 293 308 313 326 330 334 333 335 334 333 335 343 344 332 314 303 293 270 254 252 248 251 237 231 237 236 234 225 218 214 214 213 215 214 215 221 212 217 222
189 187 168 189 236 222 247 265 317 331 326 322 318 329 333 330 329 334 339 345 347 344 343 342 338 325 303 293 281 264 267 274 262 256 257 249 246 239 231 222 220 219 216 212 215 222 217 218 224